Theta_e
291 295 295 295 295 294 296 296 296 296 297 297 297 297 296 295 295 294 294 293 292 290 290 290 290 290 290 289 288 288 285 283 279 279 282 282 284 284 285 286 287 287 288
289 292 294 295 295 294 294 295 296 296 297 297 297 296 296 295 295 294 292 293 292 290 291 290 289 291 289 288 288 287 285 285 281 278 280 279 282 283 283 284 286 288 287
285 286 288 289 291 293 294 294 295 296 296 297 296 296 295 295 294 294 293 293 292 292 290 290 289 289 287 287 286 286 285 287 283 279 278 277 278 279 280 283 284 284 285
281 282 283 285 286 289 292 294 294 295 295 295 296 295 295 294 294 293 293 292 291 291 290 290 289 289 288 286 286 286 285 283 282 278 275 274 276 279 278 278 281 281 280
278 279 280 283 285 286 287 289 293 293 294 295 294 293 294 293 293 292 291 291 290 288 288 289 289 288 288 288 288 285 284 282 278 277 274 273 273 274 276 281 280 279 278
275 276 278 281 282 283 284 285 288 290 291 291 291 292 291 293 294 293 292 290 289 288 287 287 287 285 287 290 290 290 287 284 281 277 274 276 274 278 282 281 279 276 271
273 274 275 277 280 281 283 284 284 285 286 287 284 287 288 290 293 293 292 290 288 288 287 287 285 286 285 287 290 290 289 289 286 281 275 276 276 279 280 279 278 272 271
271 272 273 275 277 279 281 282 284 284 284 285 285 284 281 283 293 293 291 286 287 286 287 287 287 284 286 285 285 282 280 282 284 283 280 280 280 282 281 278 269 265 267
269 271 272 273 275 275 277 279 283 284 284 284 285 285 285 285 289 292 290 283 284 284 285 285 286 284 287 288 283 281 278 278 284 287 286 286 286 286 277 268 265 265 262
268 269 271 272 274 274 275 277 280 283 284 284 284 285 285 284 286 291 290 285 280 281 277 280 284 284 287 289 283 281 278 279 279 278 284 285 284 281 280 271 272 264 263
267 268 269 271 272 274 274 276 277 279 283 284 284 284 284 285 285 287 292 282 285 281 283 282 283 287 288 289 287 282 282 280 282 280 278 276 278 277 275 274 274 267 263
266 266 267 269 271 272 272 274 276 276 277 280 282 284 285 285 285 287 289 290 287 284 284 285 285 288 289 289 287 285 286 283 282 279 278 278 278 277 277 274 267 265 265
263 263 265 267 268 269 270 271 272 274 274 276 277 278 279 282 285 287 288 289 290 286 283 286 287 288 289 289 289 286 284 281 280 278 278 277 275 273 268 266 262 261 262
262 262 263 264 265 267 268 270 271 272 273 274 275 274 276 279 281 283 283 283 284 286 287 286 287 287 288 287 286 286 284 282 281 279 277 270 270 270 268 268 267 264 265
261 262 262 263 263 264 266 267 270 272 274 274 275 275 276 276 280 284 285 284 283 284 285 285 285 284 284 284 284 284 283 281 279 276 274 272 273 272 271 267 266 264 265
259 261 261 261 262 262 263 264 269 272 274 275 277 277 278 279 280 282 285 287 288 288 285 284 284 283 282 282 282 282 281 280 280 277 276 275 274 273 272 270 266 264 263
258 259 259 259 259 260 261 261 261 265 270 271 273 274 276 277 278 281 283 285 288 287 284 284 283 282 282 282 281 282 280 280 278 278 277 276 275 274 272 271 269 266 263
255 256 257 257 258 258 259 259 260 259 259 261 267 270 273 275 277 279 280 281 283 286 285 284 284 283 282 281 280 280 280 278 276 277 277 276 275 274 272 272 272 266 263
254 255 255 256 256 256 256 256 257 258 258 259 261 266 269 272 274 275 277 275 278 282 284 284 285 283 282 282 281 281 280 278 277 277 277 277 276 275 274 273 272 269 264
252 253 254 254 254 254 255 255 255 256 256 257 259 260 260 261 264 266 271 273 273 275 279 284 285 285 283 283 282 281 280 277 277 277 277 277 276 276 274 273 272 269 263
252 252 253 253 252 253 253 253 254 255 255 256 257 260 266 264 263 265 266 268 270 271 274 276 284 285 285 283 283 282 280 278 277 277 277 277 276 275 275 274 271 269 267
252 252 252 251 252 252 252 253 254 254 255 255 256 258 264 260 260 261 264 265 267 270 273 276 278 285 285 285 283 282 280 279 277 278 278 277 277 276 275 272 271 269 268
252 252 252 252 252 252 252 253 253 253 254 254 255 255 256 256 258 259 261 263 266 267 271 273 274 277 285 286 285 284 282 281 279 280 279 278 277 276 275 273 271 269 268
252 252 251 251 251 252 252 252 253 253 254 254 254 255 255 256 257 258 260 262 264 265 268 271 274 275 275 284 285 285 284 284 282 280 279 278 277 276 275 273 272 270 269
250 250 250 250 250 250 250 251 251 252 252 253 253 254 255 255 256 257 259 260 261 263 264 267 270 270 272 277 283 285 285 284 282 282 280 279 278 276 275 274 272 271 270
253 253 252 251 251 251 251 251 251 251 252 252 253 254 254 255 255 256 257 258 260 262 264 266 267 268 269 272 276 284 285 284 283 282 281 280 278 276 275 274 272 271 270
Wind_Speed
12 3 7 7 7 8 11 11 11 11 12 14 15 14 14 14 14 13 11 12 11 9 6 8 7 6 5 4 4 3 3 3 3 3 3 3 2 4 6 6 7 8 8
15 11 5 2 5 6 7 10 11 12 13 14 15 15 14 14 13 15 14 13 15 13 12 10 9 7 7 6 5 6 4 4 4 3 2 2 2 3 5 9 7 7 8
16 15 14 13 10 3 7 9 10 11 12 12 13 15 15 14 14 14 14 14 14 13 13 12 11 10 8 6 6 6 4 4 3 3 3 1 2 1 4 5 6 7 8
15 15 15 14 13 11 7 4 8 10 11 11 12 13 14 14 14 13 13 12 12 12 12 11 11 13 12 11 9 8 6 5 4 2 2 2 2 3 2 4 8 6 13
16 16 16 14 13 13 12 10 2 7 9 10 10 8 10 11 10 12 12 13 14 11 10 10 11 12 14 14 9 9 8 5 3 3 2 1 2 2 2 2 6 11 10
16 16 15 16 15 14 13 12 11 6 1 6 8 10 10 9 15 19 15 12 12 13 13 11 9 9 12 17 15 15 14 10 7 4 3 4 4 3 1 2 4 5 6
15 16 17 16 15 15 14 13 12 11 8 4 1 5 8 8 15 20 18 10 11 11 11 11 8 7 10 10 14 15 13 15 7 7 5 5 3 4 2 2 5 2 5
16 16 16 16 16 15 13 12 11 10 8 5 5 3 1 3 10 19 17 7 8 7 9 11 12 10 11 12 10 8 7 6 6 5 5 5 3 4 3 1 3 4 4
16 16 16 16 15 15 15 14 11 8 7 6 3 4 3 4 6 12 14 6 6 8 7 8 10 10 15 19 12 11 6 6 7 10 9 9 8 6 7 4 2 3 4
15 14 14 14 14 14 14 13 12 10 5 4 4 4 3 3 5 6 12 6 5 5 2 5 12 11 19 22 13 12 11 10 9 4 6 7 5 5 7 4 3 2 2
12 12 13 13 13 13 13 11 11 11 10 8 5 3 2 2 3 6 7 3 5 4 6 5 7 18 21 24 20 12 13 10 13 7 5 3 4 4 3 4 4 4 2
12 12 12 12 11 10 12 11 11 10 9 9 9 7 5 3 1 2 6 8 8 6 7 5 6 18 21 23 19 17 15 13 8 7 6 6 5 5 4 5 4 3 3
10 9 9 10 9 10 10 10 9 9 8 8 7 7 7 7 5 7 6 6 7 6 3 7 12 17 21 19 23 19 15 8 8 7 8 6 5 4 5 3 2 1 4
12 13 11 9 10 8 7 6 6 6 6 6 6 7 7 6 4 4 3 3 4 3 8 7 9 11 14 13 11 14 9 8 9 9 6 3 4 3 3 3 3 2 2
9 10 10 9 11 10 7 7 7 6 7 8 5 6 7 7 7 14 11 4 2 4 2 4 5 5 7 7 7 9 8 7 7 5 4 5 5 4 3 2 3 2 3
10 8 7 8 8 9 10 9 12 15 14 16 18 13 6 14 17 19 15 13 12 11 3 4 5 6 7 7 8 8 8 10 9 7 6 7 7 7 6 3 2 3 3
9 11 7 8 8 7 7 8 13 9 17 17 15 18 19 18 21 19 17 18 11 9 4 5 5 7 7 8 8 8 8 8 7 8 8 8 7 6 8 6 3 3 2
8 11 9 8 7 7 7 7 7 9 11 9 10 15 17 20 19 19 19 15 5 5 4 5 6 7 7 8 8 8 8 7 8 8 8 8 8 8 7 7 6 4 3
8 7 7 7 7 8 8 8 8 8 9 10 9 10 8 16 18 20 17 5 5 6 5 5 5 7 8 8 9 9 9 9 9 9 9 9 9 9 8 7 6 6 6
7 10 9 7 7 7 7 8 8 8 9 9 8 6 4 5 6 7 6 5 4 5 7 6 6 7 8 10 9 9 8 8 9 9 9 9 9 9 8 9 8 8 4
6 7 10 7 8 8 8 8 8 8 9 9 8 7 18 11 8 7 7 7 5 4 7 7 7 7 7 9 8 8 9 9 9 9 9 10 10 10 9 8 8 7 7
7 7 7 7 7 8 8 8 9 9 10 10 9 10 21 10 8 8 9 7 6 7 7 9 8 7 7 8 9 9 10 10 9 10 10 10 10 9 10 10 9 9 9
7 8 8 8 8 10 9 9 9 10 10 10 10 9 8 8 9 9 8 8 9 8 8 7 9 8 6 7 8 10 10 10 11 11 11 11 11 11 11 12 12 11 11
8 9 9 9 9 9 10 10 10 13 12 11 11 10 10 10 10 11 10 8 8 9 8 9 8 9 7 8 8 9 9 9 9 12 15 12 12 13 12 13 13 14 12
8 9 9 9 9 9 10 10 11 11 11 11 11 11 11 11 11 12 11 9 9 11 12 11 9 9 11 10 12 13 13 15 13 15 12 14 15 18 14 13 14 13 14
10 10 10 10 10 10 10 11 11 11 12 11 11 11 11 11 11 12 11 10 9 10 12 10 9 11 11 11 13 14 16 17 16 19 13 12 13 13 13 16 21 14 16
Wind_Direction
357 298 165 170 171 164 182 184 183 178 179 179 183 184 184 181 178 175 176 164 169 166 170 172 175 158 164 151 148 142 147 136 145 298 229 249 290 337 314 312 298 296 302
0 7 23 160 177 168 175 184 179 182 184 181 182 184 186 185 181 179 172 175 174 177 179 174 180 169 167 164 166 174 178 171 139 185 269 293 253 314 302 306 298 302 308
6 14 20 20 4 238 185 186 180 177 181 181 180 185 184 184 180 187 183 177 178 180 180 182 180 173 173 170 174 175 170 184 162 156 249 283 269 288 308 289 295 314 304
8 14 16 11 5 3 349 199 166 173 174 178 184 185 184 184 186 187 183 177 178 180 182 183 178 184 180 176 181 182 171 180 168 177 216 256 221 275 262 298 323 330 310
11 13 11 5 6 5 9 4 337 164 174 178 173 176 180 182 184 181 183 180 181 178 180 184 187 188 180 181 175 180 169 175 157 170 212 231 259 325 253 315 312 315 304
13 13 6 7 9 8 5 4 13 19 265 161 173 176 175 187 191 187 181 184 186 182 186 191 184 171 175 180 186 183 180 178 187 166 184 201 233 219 220 310 316 329 323
11 11 7 3 6 6 7 11 11 10 5 10 307 167 184 191 185 187 185 184 185 191 189 183 178 185 170 179 188 179 188 192 179 168 180 187 202 193 170 281 293 256 255
10 10 5 1 360 360 3 4 8 3 4 4 5 339 288 229 194 186 182 170 182 189 189 182 185 176 181 170 166 161 179 183 193 176 179 185 184 166 174 155 198 249 277
9 3 359 356 354 358 357 353 347 355 358 360 349 4 332 282 302 183 172 167 181 190 181 180 183 178 183 171 168 180 180 211 212 206 209 215 221 229 134 92 353 27 320
1 353 351 351 353 356 349 342 343 346 339 350 360 4 10 320 295 249 181 171 173 179 167 176 187 182 180 181 180 183 189 204 179 195 204 210 170 148 162 139 160 151 252
348 346 352 351 353 351 343 343 347 350 356 0 0 358 14 5 329 305 226 159 196 167 189 195 202 194 187 190 188 187 199 153 184 175 166 163 159 163 177 162 167 147 173
346 345 345 343 351 342 343 345 351 357 355 3 0 5 4 344 330 316 299 238 197 184 200 202 202 201 196 195 190 197 189 159 157 162 176 189 186 187 175 171 169 179 209
343 337 329 327 340 334 342 344 350 353 354 355 358 354 350 345 341 334 335 294 277 213 182 197 199 202 204 201 200 191 182 164 160 168 191 196 186 154 123 120 78 270 266
331 327 326 327 334 337 334 340 332 336 339 345 344 341 332 325 319 343 326 318 300 290 207 205 203 202 199 194 190 188 180 179 175 181 181 134 117 134 141 154 141 181 114
319 317 318 326 326 327 324 321 316 309 311 316 317 313 313 325 320 331 335 304 253 254 207 187 188 187 191 189 189 183 179 171 170 155 149 154 163 155 148 149 141 153 152
308 310 315 314 317 317 318 314 306 304 310 312 307 301 300 306 317 320 322 310 303 264 206 199 198 186 189 184 196 192 188 188 180 167 162 169 173 171 160 155 142 144 160
293 303 300 296 291 294 301 306 314 313 305 302 303 307 302 305 313 316 321 327 302 275 228 208 203 189 189 188 191 201 195 193 170 172 173 174 166 170 159 175 159 137 132
272 283 285 287 287 291 293 295 297 300 308 306 300 298 298 300 301 309 315 318 296 246 212 213 203 193 193 191 195 195 191 181 182 176 176 174 173 168 163 181 177 144 134
279 282 282 284 285 284 289 286 281 282 284 289 298 295 294 298 302 302 304 301 307 294 231 218 211 189 193 193 198 200 196 193 188 183 179 178 177 168 174 170 166 145 128
272 263 268 273 274 272 269 270 272 272 277 283 289 292 297 328 299 290 280 284 294 295 309 238 213 207 194 198 197 201 196 186 187 186 179 177 176 173 171 161 164 159 151
270 266 260 268 268 270 271 268 267 269 272 274 275 277 286 284 284 279 278 274 271 273 296 291 267 213 202 205 198 193 190 185 187 183 181 178 173 175 165 157 152 147 148
256 258 256 254 261 262 262 266 270 271 272 275 281 283 288 291 289 282 279 276 271 271 264 273 271 252 216 201 193 192 189 189 184 187 183 180 174 175 158 151 151 152 157
259 262 261 257 253 257 258 257 258 260 263 265 267 270 268 269 268 266 261 264 267 264 263 263 281 288 241 215 199 194 195 194 186 184 184 182 176 171 165 159 157 161 166
266 263 264 266 266 261 260 260 259 259 261 264 264 264 264 264 262 267 271 271 279 283 275 269 268 278 288 273 206 203 201 195 184 188 179 183 180 168 165 162 162 166 165
241 248 249 252 252 253 258 255 255 255 256 256 257 257 257 259 264 265 262 258 256 258 259 259 262 270 287 278 278 205 203 195 181 183 183 184 182 174 170 166 161 163 166
258 254 252 252 253 252 251 253 252 251 249 249 251 252 251 249 249 252 257 255 258 259 261 257 258 256 264 282 281 249 201 198 188 185 182 181 177 173 168 166 163 165 164